STARLINK-36436, 67626

Orbit data source: Space-Track

STARLINK-36436, 67626 is a payload satellite owned by SpaceX/Seattle (US) in LEO that was launched on Fri, 30 Jan 2026 UTC via an FALCON 9 launch vehicle from the Air Force Eastern Test Range (AFETR). Payload-class satellites include a variety of spacecraft equipped with specific instruments for various scientific and technological missions. These include communications satellites like Starlink; space stations such as the ISS; scientific satellites like the Hubble; Earth observation satellites from companies like Planet Labs, Umbra, and HawkEye 360; GPS; miniature CubeSats for education and research; and military/defense satellites.

Loading next visibility...
Identifier
67626, 2026-020K
Orbit
LEO
Country
Flag of USUS
Related business
Manufacturer
SpaceX/Seattle
Mission
Operational spacecraft
Bus & Motor
STARLINK V2MO, Unknown motor
Mass
575 kg wet, ~530 kg dry
Launch date (UTC)
2026-01-30 (2 months ago)
Launch vehicle
FALCON 9
Launch site
Air Force Eastern Test Range (AFETR)
Object type
Payload
Rocket body
Debris
Shape & HBR
Unknown shape, 17.7 m
Radar Cross Section
RCS unknown

Expand to show TLE details & history
Last TLE update: 5 hours ago

TLE from 5 hours ago
0 STARLINK-36436
1 67626U 26020K   26104.83030997  .00009597  00000-0  35776-3 0  9990
2 67626  42.9956 295.4191 0001110 291.4017  68.6716 15.27585689 11644
Epoch: 2026-04-14T19:55Z
TLE epoch observation values (Epoch: 2026-04-14T19:55:38.781Z)
Latitude
-0.00002°
Longitude
153.50656°
Altitude
482.53 km
Speed
7.626 km/s
True Right ascension
19h 41m 40s
True Declination
0° 00' 00"
Sunlit
Object was in daylight at epoch
Visualization orbit readout
Latitude
Unknown
Longitude
Unknown
Altitude
Unknown
Speed
Unknown
Apparent Right ascension
Unknown
Apparent Declination
Unknown
Sunlit
N/A
Visualization observer readout
Local Sidereal Time
07:13:49
Azimuth
Unknown
Elevation
Unknown
Doppler factor
Unknown
Orbital elements
Apogee altitude
485.74 km
Perigee altitude
484.216 km
Semi-major axis
6,863.115 km
Eccentricity
0.00011
Inclination
42.9956°
RAAN
295.4191°
Arg. of periapsis
291.4017°
True anomaly
68.68345°
Mean anomaly
68.6716°
Eccentric anomaly
68.67752°
Mean motion
3.81734 °/min
Orbital period
94.31 mins
BSTAR
0.00035776
Loading maneuver chart data...
Computing Atmospheric mass density...
Loading historical data...
Loading historical data...
Loading historical data...
Loading historical data...
Loading historical data...
Loading historical data...
Loading historical data...

Documentation

Showing up to 5 results
|